Time,TemperatureF,DewpointF,PressureIn,WindDirection,WindDirectionDegrees,WindSpeedMPH,WindSpeedGustMPH,Humidity,HourlyPrecipIn,Conditions,Clouds,dailyrainin,SolarRadiationWatts/m^2,SoftwareType,DateUTC
2013-05-29 00:00:00,57.0,51.0,29.71,NNE,14,2.0,-999.0,80,-99.99,,,-99.99,0.110000,,2013-05-29 06:00:00,
2013-05-29 00:52:00,57.0,51.0,29.71,NNE,14,2.0,-999.0,80,-99.99,,,-99.99,0.110000,,2013-05-29 06:52:00,
2013-05-29 02:00:00,54.0,51.0,29.69,NE,52,1.0,-999.0,87,-99.99,,,-99.99,0.090000,,2013-05-29 08:00:00,
2013-05-29 02:52:00,54.0,51.0,29.69,NE,52,1.0,-999.0,87,-99.99,,,-99.99,0.090000,,2013-05-29 08:52:00,
2013-05-29 03:00:00,53.0,50.0,29.69,North,349,2.0,-999.0,92,-99.99,,,-99.99,0.080000,,2013-05-29 09:00:00,
2013-05-29 03:52:00,53.0,50.0,29.69,North,349,2.0,-999.0,92,-99.99,,,-99.99,0.080000,,2013-05-29 09:52:00,
2013-05-29 04:00:00,54.0,52.0,29.70,NNE,12,2.0,-999.0,92,-99.99,,,-99.99,0.060000,,2013-05-29 10:00:00,
2013-05-29 04:53:00,54.0,52.0,29.70,NNE,12,2.0,-999.0,92,-99.99,,,-99.99,0.060000,,2013-05-29 10:53:00,
2013-05-29 05:00:00,53.0,52.0,29.69,NE,42,2.0,-999.0,95,-99.99,,,-99.99,0.170000,,2013-05-29 11:00:00,
2013-05-29 05:52:00,53.0,52.0,29.69,NE,42,2.0,-999.0,95,-99.99,,,-99.99,0.170000,,2013-05-29 11:52:00,
2013-05-29 06:00:00,54.0,52.0,29.68,NNW,340,3.0,-999.0,93,-99.99,,,-99.99,8.920000,,2013-05-29 12:00:00,
2013-05-29 06:52:00,54.0,52.0,29.68,NNW,340,3.0,-999.0,93,-99.99,,,-99.99,8.920000,,2013-05-29 12:52:00,
2013-05-29 07:00:00,54.0,53.0,29.67,NE,48,4.0,-999.0,95,-99.99,,,-99.99,31.730000,,2013-05-29 13:00:00,
2013-05-29 07:53:00,54.0,53.0,29.67,NE,48,4.0,-999.0,95,-99.99,,,-99.99,31.730000,,2013-05-29 13:53:00,
2013-05-29 08:00:00,55.0,54.0,29.67,NNE,23,6.0,-999.0,94,-99.99,,,-99.99,57.779999,,2013-05-29 14:00:00,
2013-05-29 08:52:00,55.0,54.0,29.67,NNE,23,6.0,-999.0,94,-99.99,,,-99.99,57.779999,,2013-05-29 14:52:00,
2013-05-29 09:00:00,58.0,55.0,29.67,ENE,64,7.0,-999.0,90,-99.99,,,-99.99,126.199997,,2013-05-29 15:00:00,
2013-05-29 09:53:00,58.0,55.0,29.67,ENE,64,7.0,-999.0,90,-99.99,,,-99.99,126.199997,,2013-05-29 15:53:00,
2013-05-29 10:00:00,58.0,53.0,29.67,ENE,78,12.0,-999.0,85,-99.99,,,-99.99,155.899994,,2013-05-29 16:00:00,
2013-05-29 10:52:00,58.0,53.0,29.67,ENE,78,12.0,-999.0,85,-99.99,,,-99.99,155.899994,,2013-05-29 16:52:00,
2013-05-29 11:00:00,58.0,54.0,29.67,East,79,13.0,-999.0,88,-99.99,,,-99.99,154.800003,,2013-05-29 17:00:00,
2013-05-29 11:52:00,58.0,54.0,29.67,East,79,13.0,-999.0,88,-99.99,,,-99.99,154.800003,,2013-05-29 17:52:00,
2013-05-29 12:00:00,60.0,54.0,29.67,ENE,76,12.0,-999.0,80,-99.99,,,-99.99,231.800003,,2013-05-29 18:00:00,
2013-05-29 12:52:00,60.0,54.0,29.67,ENE,76,12.0,-999.0,80,-99.99,,,-99.99,231.800003,,2013-05-29 18:52:00,
2013-05-29 13:00:00,61.0,54.0,29.65,East,79,12.0,-999.0,76,-99.99,,,-99.99,188.199997,,2013-05-29 19:00:00,
2013-05-29 13:53:00,61.0,54.0,29.65,East,79,12.0,-999.0,76,-99.99,,,-99.99,188.199997,,2013-05-29 19:53:00,
2013-05-29 14:00:00,65.0,54.0,29.63,ENE,68,13.0,-999.0,69,-99.99,,,-99.99,244.300003,,2013-05-29 20:00:00,
2013-05-29 14:53:00,65.0,54.0,29.63,ENE,68,13.0,-999.0,69,-99.99,,,-99.99,244.300003,,2013-05-29 20:53:00,
2013-05-29 15:00:00,66.0,54.0,29.63,ENE,75,14.0,-999.0,65,-99.99,,,-99.99,319.899994,,2013-05-29 21:00:00,
2013-05-29 15:53:00,66.0,54.0,29.63,ENE,75,14.0,-999.0,65,-99.99,,,-99.99,319.899994,,2013-05-29 21:53:00,
2013-05-29 16:00:00,68.0,54.0,29.61,East,85,16.0,-999.0,61,-99.99,,,-99.99,534.799988,,2013-05-29 22:00:00,
2013-05-29 16:53:00,68.0,54.0,29.61,East,85,16.0,-999.0,61,-99.99,,,-99.99,534.799988,,2013-05-29 22:53:00,
2013-05-29 17:00:00,65.0,54.0,29.59,East,81,14.0,-999.0,68,-99.99,,,-99.99,153.600006,,2013-05-29 23:00:00,
2013-05-29 17:53:00,65.0,54.0,29.59,East,81,14.0,-999.0,68,-99.99,,,-99.99,153.600006,,2013-05-29 23:53:00,
2013-05-29 18:00:00,61.0,57.0,29.59,ENE,70,8.0,-999.0,85,-99.99,,,-99.99,19.799999,,2013-05-30 00:00:00,
2013-05-29 18:52:00,61.0,57.0,29.59,ENE,70,8.0,-999.0,85,-99.99,,,-99.99,19.799999,,2013-05-30 00:52:00,
2013-05-29 19:00:00,62.0,57.0,29.59,ENE,60,6.0,-999.0,83,-99.99,,,-99.99,24.059999,,2013-05-30 01:00:00,
2013-05-29 19:52:00,62.0,57.0,29.59,ENE,60,6.0,-999.0,83,-99.99,,,-99.99,24.059999,,2013-05-30 01:52:00,
2013-05-29 20:00:00,61.0,56.0,29.59,NE,55,9.0,-999.0,82,-99.99,,,-99.99,16.510000,,2013-05-30 02:00:00,
2013-05-29 21:00:00,59.0,53.0,29.61,East,83,10.0,-999.0,79,-99.99,,,-99.99,1.140000,,2013-05-30 03:00:00,
2013-05-29 21:53:00,59.0,53.0,29.61,East,83,10.0,-999.0,79,-99.99,,,-99.99,1.140000,,2013-05-30 03:53:00,
2013-05-29 22:00:00,59.0,55.0,29.61,East,84,6.0,-999.0,86,-99.99,,,-99.99,0.120000,,2013-05-30 04:00:00,
2013-05-29 22:53:00,59.0,55.0,29.61,East,84,6.0,-999.0,86,-99.99,,,-99.99,0.120000,,2013-05-30 04:53:00,
2013-05-29 23:00:00,58.0,54.0,29.62,South,189,7.0,-999.0,87,-99.99,,,-99.99,0.090000,,2013-05-30 05:00:00,
2013-05-29 23:52:00,58.0,54.0,29.62,South,189,7.0,-999.0,87,-99.99,,,-99.99,0.090000,,2013-05-30 05:52:00,